User: anonymous   Login
Location: Unspecified
(0.0000°N, 0.0000°E)
Time: 01:19:14
(UTC+01:00)
Language:

ITAMSAT 1 - Orbit

View from above orbital plane
View from above orbital plane
View from above satellite
View from above satellite

Ground track
Ground track

The orbit data is extracted from the following two-line orbital elements,

1 22826U 93061D   16036.49187862  .00000049  00000-0  36182-4 0  9997
2 22826  98.7363 352.1859 0008670 344.5710  15.5206 14.30258012166431
Epoch (UTC): 05 February 2016 11:48:18
Eccentricity: 0.0008670
inclination: 98.7363°
perigee height: 784 km
apogee height: 797 km
right ascension of ascending node: 352.1859°
argument of perigee: 344.5710°
revolutions per day: 14.30258012
mean anomaly at epoch: 15.5206°
orbit number at epoch: 16643

The dashed part of the orbit path shows where the satellite is in the earth's shadow,  

DLR